Location: Asheville, NC
(35.6000°N, 82.5500°W)
Time: 00:28:41
(UTC-04:00)

Vanguard 2 Rocket - Pass Details

Date: 13 March 2018
Orbit: 553 x 3328 km, 32.9° (Epoch: 24 June)

Event Time Altitude Azimuth Distance (km) Brightness Sun altitude
Rises 18:40:45 0° 247° (WSW) 2,708 11.2 10.3°
Reaches altitude 10° 18:42:52 10° 241° (WSW) 1,828 10.2 9.9°
Maximum altitude 18:46:41 49° 165° (SSE) 803 6.8 9.1°
Drops below altitude 10° 18:51:38 10° 91° (E) 2,369 8.5 8.1°
Sets 18:54:45 0° 86° (E) 3,633 9.3 7.5°
